Time,TemperatureF,DewpointF,PressureIn,WindDirection,WindDirectionDegrees,WindSpeedMPH,WindSpeedGustMPH,Humidity,HourlyPrecipIn,Conditions,Clouds,dailyrainin,SolarRadiationWatts/m^2,SoftwareType,DateUTC
2013-01-19 00:00:00,27.9,17.0,30.33,SSW,196,3.0,6.0,63,0.00,,,0.00,0,WeatherCatV1.11B39,2013-01-19 05:00:00,
2013-01-19 00:01:00,27.9,17.0,30.33,SSW,195,3.0,5.0,63,0.00,,,0.00,0,WeatherCatV1.11B39,2013-01-19 05:01:00,
2013-01-19 00:06:00,27.9,17.3,30.33,SSW,202,3.0,6.0,64,0.00,,,0.00,0,WeatherCatV1.11B39,2013-01-19 05:06:00,
2013-01-19 00:11:00,28.1,17.5,30.33,South,189,1.0,5.0,64,0.00,,,0.00,0,WeatherCatV1.11B39,2013-01-19 05:11:00,
2013-01-19 00:16:00,28.2,17.6,30.32,SSW,202,2.0,5.0,64,0.00,,,0.00,0,WeatherCatV1.11B39,2013-01-19 05:16:00,
2013-01-19 00:21:00,28.1,17.9,30.32,SSW,208,4.0,6.0,65,0.00,,,0.00,0,WeatherCatV1.11B39,2013-01-19 05:21:00,
2013-01-19 00:26:00,28.1,17.9,30.32,South,189,2.0,7.0,65,0.00,,,0.00,0,WeatherCatV1.11B39,2013-01-19 05:26:00,
2013-01-19 00:31:00,28.4,18.2,30.32,SSW,199,3.0,7.0,65,0.00,,,0.00,0,WeatherCatV1.11B39,2013-01-19 05:31:00,
2013-01-19 00:36:00,28.4,18.2,30.32,SSW,195,5.0,7.0,65,0.00,,,0.00,0,WeatherCatV1.11B39,2013-01-19 05:36:00,
2013-01-19 00:41:00,28.5,18.6,30.32,SW,217,6.0,8.0,66,0.00,,,0.00,0,WeatherCatV1.11B39,2013-01-19 05:41:00,
2013-01-19 00:46:00,28.5,18.6,30.31,South,181,2.0,4.0,66,0.00,,,0.00,0,WeatherCatV1.11B39,2013-01-19 05:46:00,
2013-01-19 00:51:00,28.5,18.6,30.31,South,189,3.0,7.0,66,0.00,,,0.00,0,WeatherCatV1.11B39,2013-01-19 05:51:00,
2013-01-19 00:56:00,28.4,18.9,30.31,SSW,195,2.0,6.0,67,0.00,,,0.00,0,WeatherCatV1.11B39,2013-01-19 05:56:00,
2013-01-19 01:01:00,28.5,19.6,30.31,SSW,193,4.0,5.0,69,0.00,,,0.00,0,WeatherCatV1.11B39,2013-01-19 06:01:00,
2013-01-19 01:06:00,28.4,19.5,30.31,SSW,198,3.0,6.0,69,0.00,,,0.00,0,WeatherCatV1.11B39,2013-01-19 06:06:00,
2013-01-19 01:11:00,28.4,19.5,30.31,SSW,198,1.0,7.0,69,0.00,,,0.00,0,WeatherCatV1.11B39,2013-01-19 06:11:00,
2013-01-19 01:16:00,28.4,19.9,30.30,SSW,196,4.0,6.0,70,0.00,,,0.00,0,WeatherCatV1.11B39,2013-01-19 06:16:00,
2013-01-19 01:21:00,28.4,19.9,30.30,South,185,2.0,6.0,70,0.00,,,0.00,0,WeatherCatV1.11B39,2013-01-19 06:21:00,
2013-01-19 01:26:00,28.4,19.9,30.30,SSW,195,0.0,5.0,70,0.00,,,0.00,0,WeatherCatV1.11B39,2013-01-19 06:26:00,
2013-01-19 01:31:00,28.2,20.0,30.30,South,189,2.0,5.0,71,0.00,,,0.00,0,WeatherCatV1.11B39,2013-01-19 06:31:00,
2013-01-19 01:36:00,28.4,20.5,30.30,SW,216,2.0,4.0,72,0.00,,,0.00,0,WeatherCatV1.11B39,2013-01-19 06:36:00,
2013-01-19 01:41:00,28.2,20.0,30.30,South,189,4.0,6.0,71,0.00,,,0.00,0,WeatherCatV1.11B39,2013-01-19 06:41:00,
2013-01-19 01:46:00,28.4,20.2,30.30,SSW,193,3.0,5.0,71,0.00,,,0.00,0,WeatherCatV1.11B39,2013-01-19 06:46:00,
2013-01-19 01:51:00,28.2,20.4,30.30,South,181,1.0,4.0,72,0.00,,,0.00,0,WeatherCatV1.11B39,2013-01-19 06:51:00,
2013-01-19 01:56:00,28.2,20.7,30.30,SSW,200,4.0,5.0,73,0.00,,,0.00,0,WeatherCatV1.11B39,2013-01-19 06:56:00,
2013-01-19 02:01:00,28.2,20.4,30.30,SSW,196,3.0,4.0,72,0.00,,,0.00,0,WeatherCatV1.11B39,2013-01-19 07:01:00,
2013-01-19 02:06:00,28.1,20.6,30.30,SSE,155,1.0,5.0,73,0.00,,,0.00,0,WeatherCatV1.11B39,2013-01-19 07:06:00,
2013-01-19 02:11:00,28.1,20.9,30.30,SSW,192,3.0,6.0,74,0.00,,,0.00,0,WeatherCatV1.11B39,2013-01-19 07:11:00,
2013-01-19 02:16:00,28.1,20.6,30.30,South,188,5.0,7.0,73,0.00,,,0.00,0,WeatherCatV1.11B39,2013-01-19 07:16:00,
2013-01-19 02:21:00,28.1,20.6,30.30,South,191,4.0,7.0,73,0.00,,,0.00,0,WeatherCatV1.11B39,2013-01-19 07:21:00,
2013-01-19 02:26:00,28.2,20.4,30.30,SSW,206,5.0,6.0,72,0.00,,,0.00,0,WeatherCatV1.11B39,2013-01-19 07:26:00,
2013-01-19 02:31:00,28.1,20.9,30.30,South,189,3.0,6.0,74,0.00,,,0.00,0,WeatherCatV1.11B39,2013-01-19 07:31:00,
2013-01-19 02:36:00,28.1,21.2,30.30,SSW,195,3.0,5.0,75,0.00,,,0.00,0,WeatherCatV1.11B39,2013-01-19 07:36:00,
2013-01-19 02:41:00,28.1,20.9,30.30,South,186,2.0,6.0,74,0.00,,,0.00,0,WeatherCatV1.11B39,2013-01-19 07:41:00,
2013-01-19 02:46:00,28.1,21.2,30.30,SSW,198,2.0,5.0,75,0.00,,,0.00,0,WeatherCatV1.11B39,2013-01-19 07:46:00,
2013-01-19 02:51:00,28.1,21.2,30.30,SW,222,5.0,6.0,75,0.00,,,0.00,0,WeatherCatV1.11B39,2013-01-19 07:51:00,
2013-01-19 02:56:00,28.2,21.6,30.30,South,189,2.0,7.0,76,0.00,,,0.00,0,WeatherCatV1.11B39,2013-01-19 07:56:00,
2013-01-19 03:01:00,28.2,21.6,30.29,SSW,193,5.0,7.0,76,0.00,,,0.00,0,WeatherCatV1.11B39,2013-01-19 08:01:00,
2013-01-19 03:06:00,28.2,21.6,30.29,SSW,193,3.0,5.0,76,0.00,,,0.00,0,WeatherCatV1.11B39,2013-01-19 08:06:00,
2013-01-19 03:11:00,28.4,21.5,30.29,SSW,196,3.0,7.0,75,0.00,,,0.00,0,WeatherCatV1.11B39,2013-01-19 08:11:00,
2013-01-19 03:16:00,28.4,22.1,30.29,SSW,192,6.0,10.0,77,0.00,,,0.00,0,WeatherCatV1.11B39,2013-01-19 08:16:00,
2013-01-19 03:21:00,28.4,22.1,30.29,SSW,198,5.0,6.0,77,0.00,,,0.00,0,WeatherCatV1.11B39,2013-01-19 08:21:00,
2013-01-19 03:26:00,28.2,21.9,30.29,SSW,202,3.0,8.0,77,0.00,,,0.00,0,WeatherCatV1.11B39,2013-01-19 08:26:00,
2013-01-19 03:31:00,28.2,22.5,30.29,South,185,5.0,7.0,79,0.00,,,0.00,0,WeatherCatV1.11B39,2013-01-19 08:31:00,
2013-01-19 03:36:00,28.2,22.5,30.29,SSW,205,2.0,10.0,79,0.00,,,0.00,0,WeatherCatV1.11B39,2013-01-19 08:36:00,
2013-01-19 03:41:00,28.2,22.2,30.29,SSW,192,5.0,7.0,78,0.00,,,0.00,0,WeatherCatV1.11B39,2013-01-19 08:41:00,
2013-01-19 03:46:00,28.2,22.8,30.27,SSW,202,7.0,7.0,80,0.00,,,0.00,0,WeatherCatV1.11B39,2013-01-19 08:46:00,
2013-01-19 03:51:00,28.2,22.5,30.27,SSW,196,3.0,6.0,79,0.00,,,0.00,0,WeatherCatV1.11B39,2013-01-19 08:51:00,
2013-01-19 03:56:00,28.1,22.4,30.27,SSW,203,5.0,7.0,79,0.00,,,0.00,0,WeatherCatV1.11B39,2013-01-19 08:56:00,
2013-01-19 04:01:00,28.1,22.4,30.28,South,186,2.0,5.0,79,0.00,,,0.00,0,WeatherCatV1.11B39,2013-01-19 09:01:00,
2013-01-19 04:06:00,28.1,22.4,30.28,South,185,5.0,6.0,79,0.00,,,0.00,0,WeatherCatV1.11B39,2013-01-19 09:06:00,
2013-01-19 04:11:00,28.1,22.7,30.28,South,189,5.0,8.0,80,0.00,,,0.00,0,WeatherCatV1.11B39,2013-01-19 09:11:00,
2013-01-19 04:16:00,28.1,22.7,30.26,SSW,206,3.0,10.0,80,0.00,,,0.00,0,WeatherCatV1.11B39,2013-01-19 09:16:00,
2013-01-19 04:21:00,28.1,22.4,30.26,South,176,4.0,10.0,79,0.00,,,0.00,0,WeatherCatV1.11B39,2013-01-19 09:21:00,
2013-01-19 04:26:00,28.1,22.7,30.26,SSW,213,3.0,7.0,80,0.00,,,0.00,0,WeatherCatV1.11B39,2013-01-19 09:26:00,
2013-01-19 04:31:00,28.1,23.0,30.26,SSW,199,4.0,7.0,81,0.00,,,0.00,0,WeatherCatV1.11B39,2013-01-19 09:31:00,
2013-01-19 04:36:00,27.9,22.8,30.26,SSW,192,2.0,7.0,81,0.00,,,0.00,0,WeatherCatV1.11B39,2013-01-19 09:36:00,
2013-01-19 04:41:00,28.1,22.7,30.26,South,171,2.0,6.0,80,0.00,,,0.00,0,WeatherCatV1.11B39,2013-01-19 09:41:00,
2013-01-19 04:46:00,27.9,22.8,30.26,South,184,6.0,7.0,81,0.00,,,0.00,0,WeatherCatV1.11B39,2013-01-19 09:46:00,
2013-01-19 04:51:00,28.1,23.0,30.26,SSW,199,1.0,9.0,81,0.00,,,0.00,0,WeatherCatV1.11B39,2013-01-19 09:51:00,
2013-01-19 04:56:00,28.1,23.0,30.26,South,185,3.0,7.0,81,0.00,,,0.00,0,WeatherCatV1.11B39,2013-01-19 09:56:00,
2013-01-19 05:01:00,28.1,23.0,30.26,South,182,2.0,8.0,81,0.00,,,0.00,0,WeatherCatV1.11B39,2013-01-19 10:01:00,
2013-01-19 05:06:00,28.1,23.0,30.26,SSW,200,7.0,8.0,81,0.00,,,0.00,0,WeatherCatV1.11B39,2013-01-19 10:06:00,
2013-01-19 05:11:00,28.1,23.0,30.26,SSW,200,6.0,8.0,81,0.00,,,0.00,0,WeatherCatV1.11B39,2013-01-19 10:11:00,
2013-01-19 05:16:00,28.1,23.0,30.25,SW,215,6.0,8.0,81,0.00,,,0.00,0,WeatherCatV1.11B39,2013-01-19 10:16:00,
2013-01-19 05:21:00,27.9,22.8,30.25,South,189,6.0,9.0,81,0.00,,,0.00,0,WeatherCatV1.11B39,2013-01-19 10:21:00,
2013-01-19 05:26:00,27.9,22.5,30.25,SSW,208,4.0,12.0,80,0.00,,,0.00,0,WeatherCatV1.11B39,2013-01-19 10:26:00,
2013-01-19 05:31:00,27.9,22.8,30.25,South,174,6.0,11.0,81,0.00,,,0.00,0,WeatherCatV1.11B39,2013-01-19 10:31:00,
2013-01-19 05:36:00,27.9,22.5,30.25,SW,215,6.0,10.0,80,0.00,,,0.00,0,WeatherCatV1.11B39,2013-01-19 10:36:00,
2013-01-19 05:41:00,27.9,23.1,30.25,SSW,193,6.0,11.0,82,0.00,,,0.00,0,WeatherCatV1.11B39,2013-01-19 10:41:00,
2013-01-19 05:46:00,28.1,23.0,30.25,SSW,205,6.0,7.0,81,0.00,,,0.00,0,WeatherCatV1.11B39,2013-01-19 10:46:00,
2013-01-19 05:51:00,28.1,23.0,30.25,SSW,193,2.0,7.0,81,0.00,,,0.00,0,WeatherCatV1.11B39,2013-01-19 10:51:00,
2013-01-19 05:56:00,28.1,23.0,30.25,SSW,192,4.0,6.0,81,0.00,,,0.00,0,WeatherCatV1.11B39,2013-01-19 10:56:00,
2013-01-19 06:01:00,28.1,23.0,30.25,SSW,200,5.0,10.0,81,0.00,,,0.00,0,WeatherCatV1.11B39,2013-01-19 11:01:00,
2013-01-19 06:06:00,28.1,23.0,30.25,SSW,208,1.0,10.0,81,0.00,,,0.00,0,WeatherCatV1.11B39,2013-01-19 11:06:00,
2013-01-19 06:11:00,28.1,23.0,30.25,South,186,7.0,7.0,81,0.00,,,0.00,0,WeatherCatV1.11B39,2013-01-19 11:11:00,
2013-01-19 06:15:00,28.1,22.7,30.25,SSW,197,5.0,8.0,80,0.00,,,0.00,0,WeatherCatV1.11B39,2013-01-19 11:15:00,
2013-01-19 06:20:00,28.1,23.0,30.25,SSW,199,5.0,11.0,81,0.00,,,0.00,0,WeatherCatV1.11B39,2013-01-19 11:20:00,
2013-01-19 06:25:00,27.9,23.4,30.25,SSW,202,5.0,7.0,83,0.00,,,0.00,0,WeatherCatV1.11B39,2013-01-19 11:25:00,
2013-01-19 06:30:00,27.9,22.5,30.25,SSW,201,5.0,11.0,80,0.00,,,0.00,0,WeatherCatV1.11B39,2013-01-19 11:30:00,
2013-01-19 06:35:00,28.1,23.6,30.25,SSW,196,5.0,8.0,83,0.00,,,0.00,0,WeatherCatV1.11B39,2013-01-19 11:35:00,
2013-01-19 06:40:00,27.9,23.1,30.25,SSW,203,5.0,6.0,82,0.00,,,0.00,0,WeatherCatV1.11B39,2013-01-19 11:40:00,
2013-01-19 06:45:00,27.9,23.1,30.25,SSW,201,5.0,7.0,82,0.00,,,0.00,0,WeatherCatV1.11B39,2013-01-19 11:45:00,
2013-01-19 06:50:00,27.9,22.5,30.25,SSW,198,5.0,8.0,80,0.00,,,0.00,0,WeatherCatV1.11B39,2013-01-19 11:50:00,
2013-01-19 06:55:00,28.1,23.0,30.25,SSW,198,5.0,10.0,81,0.00,,,0.00,0,WeatherCatV1.11B39,2013-01-19 11:55:00,
2013-01-19 07:00:00,28.1,23.3,30.25,SSW,197,5.0,7.0,82,0.00,,,0.00,0,WeatherCatV1.11B39,2013-01-19 12:00:00,
2013-01-19 07:05:00,28.1,23.3,30.25,SSW,202,5.0,11.0,82,0.00,,,0.00,0,WeatherCatV1.11B39,2013-01-19 12:05:00,
2013-01-19 07:10:00,28.1,23.0,30.25,SSW,206,5.0,8.0,81,0.00,,,0.00,0,WeatherCatV1.11B39,2013-01-19 12:10:00,
2013-01-19 07:15:00,27.9,23.4,30.25,SSW,202,4.0,7.0,83,0.00,,,0.00,0,WeatherCatV1.11B39,2013-01-19 12:15:00,
2013-01-19 07:20:00,27.8,23.3,30.25,SSW,199,4.0,8.0,83,0.00,,,0.00,5,WeatherCatV1.11B39,2013-01-19 12:20:00,
2013-01-19 07:25:00,27.8,23.3,30.25,SSW,199,4.0,7.0,83,0.00,,,0.00,5,WeatherCatV1.11B39,2013-01-19 12:25:00,
2013-01-19 07:30:00,27.8,23.3,30.24,SSW,198,4.0,6.0,83,0.00,,,0.00,7,WeatherCatV1.11B39,2013-01-19 12:30:00,
2013-01-19 07:35:00,27.8,23.6,30.24,SSW,195,4.0,6.0,84,0.00,,,0.00,9,WeatherCatV1.11B39,2013-01-19 12:35:00,
2013-01-19 07:49:00,27.9,23.1,30.24,SSW,200,4.0,6.0,82,0.00,,,0.00,16,WeatherCatV1.11B39,2013-01-19 12:49:00,
2013-01-19 07:54:00,28.5,23.1,30.24,South,191,4.0,8.0,80,0.00,,,0.00,42,WeatherCatV1.11B39,2013-01-19 12:54:00,
2013-01-19 07:59:00,29.0,23.9,30.24,SW,223,5.0,8.0,81,0.00,,,0.00,51,WeatherCatV1.11B39,2013-01-19 12:59:00,
2013-01-19 08:01:00,29.0,23.6,30.24,SSW,202,6.0,7.0,80,0.00,,,0.00,51,WeatherCatV1.11B39,2013-01-19 13:01:00,
2013-01-19 08:06:00,29.3,24.2,30.24,South,181,3.0,7.0,81,0.00,,,0.00,72,WeatherCatV1.11B39,2013-01-19 13:06:00,
2013-01-19 08:11:00,29.5,24.4,30.24,SSW,202,6.0,7.0,81,0.00,,,0.00,83,WeatherCatV1.11B39,2013-01-19 13:11:00,
2013-01-19 08:16:00,29.8,23.8,30.24,SSW,203,7.0,11.0,78,0.00,,,0.00,99,WeatherCatV1.11B39,2013-01-19 13:16:00,
2013-01-19 08:21:00,30.1,24.1,30.24,SSW,202,7.0,10.0,78,0.00,,,0.00,111,WeatherCatV1.11B39,2013-01-19 13:21:00,
2013-01-19 08:26:00,30.4,23.8,30.24,SSW,202,7.0,11.0,76,0.00,,,0.00,120,WeatherCatV1.11B39,2013-01-19 13:26:00,
2013-01-19 08:31:00,30.9,24.2,30.24,SSW,195,7.0,9.0,76,0.00,,,0.00,132,WeatherCatV1.11B39,2013-01-19 13:31:00,
2013-01-19 08:36:00,31.0,24.0,30.24,South,174,9.0,12.0,75,0.00,,,0.00,144,WeatherCatV1.11B39,2013-01-19 13:36:00,
2013-01-19 08:41:00,31.5,24.2,30.24,SSW,202,6.0,10.0,74,0.00,,,0.00,155,WeatherCatV1.11B39,2013-01-19 13:41:00,
2013-01-19 08:46:00,31.8,24.5,30.24,SSE,168,10.0,14.0,74,0.00,,,0.00,167,WeatherCatV1.11B39,2013-01-19 13:46:00,
2013-01-19 08:51:00,31.9,24.2,30.24,SSW,196,3.0,14.0,73,0.00,,,0.00,178,WeatherCatV1.11B39,2013-01-19 13:51:00,
2013-01-19 08:56:00,32.1,24.1,30.24,SSW,213,7.0,12.0,72,0.00,,,0.00,190,WeatherCatV1.11B39,2013-01-19 13:56:00,
2013-01-19 09:01:00,32.5,24.5,30.24,South,181,7.0,11.0,72,0.00,,,0.00,202,WeatherCatV1.11B39,2013-01-19 14:01:00,
2013-01-19 09:06:00,32.8,24.4,30.24,SSW,213,8.0,9.0,71,0.00,,,0.00,213,WeatherCatV1.11B39,2013-01-19 14:06:00,
2013-01-19 09:11:00,32.9,24.2,30.24,South,186,3.0,8.0,70,0.00,,,0.00,223,WeatherCatV1.11B39,2013-01-19 14:11:00,
2013-01-19 09:16:00,33.4,24.7,30.24,SW,220,4.0,11.0,70,0.00,,,0.00,236,WeatherCatV1.11B39,2013-01-19 14:16:00,
2013-01-19 09:21:00,33.5,24.4,30.24,SSW,205,6.0,17.0,69,0.00,,,0.00,246,WeatherCatV1.11B39,2013-01-19 14:21:00,
2013-01-19 09:26:00,34.0,24.9,30.24,South,189,3.0,10.0,69,0.00,,,0.00,257,WeatherCatV1.11B39,2013-01-19 14:26:00,
2013-01-19 09:31:00,34.4,24.6,30.24,SSW,200,10.0,14.0,67,0.00,,,0.00,267,WeatherCatV1.11B39,2013-01-19 14:31:00,
2013-01-19 09:36:00,34.6,24.1,30.24,South,185,6.0,17.0,65,0.00,,,0.00,276,WeatherCatV1.11B39,2013-01-19 14:36:00,
2013-01-19 09:41:00,34.7,24.5,30.24,South,184,2.0,13.0,66,0.00,,,0.00,289,WeatherCatV1.11B39,2013-01-19 14:41:00,
2013-01-19 09:46:00,35.2,25.0,30.24,SSW,193,3.0,12.0,66,0.00,,,0.00,299,WeatherCatV1.11B39,2013-01-19 14:46:00,
2013-01-19 09:51:00,35.8,25.9,30.24,South,191,7.0,10.0,67,0.00,,,0.00,310,WeatherCatV1.11B39,2013-01-19 14:51:00,
2013-01-19 09:56:00,35.8,24.8,30.24,SW,215,13.0,14.0,64,0.00,,,0.00,318,WeatherCatV1.11B39,2013-01-19 14:56:00,
2013-01-19 10:01:00,36.2,26.0,30.24,South,191,8.0,10.0,66,0.00,,,0.00,327,WeatherCatV1.11B39,2013-01-19 15:01:00,
2013-01-19 10:06:00,36.8,25.8,30.24,SW,222,9.0,12.0,64,0.00,,,0.00,338,WeatherCatV1.11B39,2013-01-19 15:06:00,
2013-01-19 10:11:00,37.3,25.5,30.24,SSW,193,3.0,12.0,62,0.00,,,0.00,345,WeatherCatV1.11B39,2013-01-19 15:11:00,
2013-01-19 10:16:00,37.3,25.5,30.23,SSW,196,9.0,14.0,62,0.00,,,0.00,354,WeatherCatV1.11B39,2013-01-19 15:16:00,
2013-01-19 10:21:00,37.5,25.3,30.23,SSW,200,7.0,8.0,61,0.00,,,0.00,362,WeatherCatV1.11B39,2013-01-19 15:21:00,
2013-01-19 10:26:00,37.9,26.4,30.23,South,178,2.0,12.0,63,0.00,,,0.00,371,WeatherCatV1.11B39,2013-01-19 15:26:00,
2013-01-19 10:31:00,38.0,25.4,30.23,SSW,206,7.0,13.0,60,0.00,,,0.00,377,WeatherCatV1.11B39,2013-01-19 15:31:00,
2013-01-19 10:36:00,38.9,26.6,30.23,SSW,192,3.0,7.0,61,0.00,,,0.00,385,WeatherCatV1.11B39,2013-01-19 15:36:00,
2013-01-19 10:41:00,39.5,26.0,30.23,SSW,193,5.0,13.0,58,0.00,,,0.00,392,WeatherCatV1.11B39,2013-01-19 15:41:00,
2013-01-19 10:46:00,39.5,26.0,30.22,SSE,158,7.0,14.0,58,0.00,,,0.00,399,WeatherCatV1.11B39,2013-01-19 15:46:00,
2013-01-19 10:51:00,39.6,26.5,30.22,SSW,198,7.0,11.0,59,0.00,,,0.00,406,WeatherCatV1.11B39,2013-01-19 15:51:00,
2013-01-19 10:56:00,40.6,26.6,30.22,SSW,200,10.0,12.0,57,0.00,,,0.00,412,WeatherCatV1.11B39,2013-01-19 15:56:00,
2013-01-19 11:01:00,41.3,26.8,30.21,SSW,206,11.0,12.0,56,0.00,,,0.00,419,WeatherCatV1.11B39,2013-01-19 16:01:00,
2013-01-19 11:06:00,42.1,26.7,30.21,SSW,193,2.0,11.0,54,0.00,,,0.00,424,WeatherCatV1.11B39,2013-01-19 16:06:00,
2013-01-19 11:11:00,41.9,26.9,30.21,SW,215,8.0,11.0,55,0.00,,,0.00,431,WeatherCatV1.11B39,2013-01-19 16:11:00,
2013-01-19 11:16:00,42.3,26.9,30.20,SSW,195,3.0,12.0,54,0.00,,,0.00,436,WeatherCatV1.11B39,2013-01-19 16:16:00,
2013-01-19 11:21:00,42.6,26.2,30.20,SSW,208,7.0,9.0,52,0.00,,,0.00,438,WeatherCatV1.11B39,2013-01-19 16:21:00,
2013-01-19 11:26:00,42.5,26.6,30.20,South,179,6.0,11.0,53,0.00,,,0.00,443,WeatherCatV1.11B39,2013-01-19 16:26:00,
2013-01-19 11:31:00,42.6,25.8,30.19,South,172,7.0,12.0,51,0.00,,,0.00,445,WeatherCatV1.11B39,2013-01-19 16:31:00,
2013-01-19 11:36:00,42.8,27.3,30.19,South,185,9.0,11.0,54,0.00,,,0.00,449,WeatherCatV1.11B39,2013-01-19 16:36:00,
2013-01-19 11:41:00,43.5,26.1,30.19,SSW,202,8.0,8.0,50,0.00,,,0.00,452,WeatherCatV1.11B39,2013-01-19 16:41:00,
2013-01-19 11:46:00,43.8,26.9,30.17,SSW,192,7.0,12.0,51,0.00,,,0.00,456,WeatherCatV1.11B39,2013-01-19 16:46:00,
2013-01-19 11:51:00,44.3,25.9,30.17,South,178,7.0,13.0,48,0.00,,,0.00,457,WeatherCatV1.11B39,2013-01-19 16:51:00,
2013-01-19 11:56:00,44.2,26.8,30.17,South,191,5.0,13.0,50,0.00,,,0.00,461,WeatherCatV1.11B39,2013-01-19 16:56:00,
2013-01-19 12:01:00,44.9,26.9,30.15,SSW,196,11.0,11.0,49,0.00,,,0.00,463,WeatherCatV1.11B39,2013-01-19 17:01:00,
2013-01-19 12:06:00,44.8,27.3,30.15,SSW,203,7.0,14.0,50,0.00,,,0.00,463,WeatherCatV1.11B39,2013-01-19 17:06:00,
2013-01-19 12:11:00,44.9,26.9,30.15,South,174,8.0,12.0,49,0.00,,,0.00,465,WeatherCatV1.11B39,2013-01-19 17:11:00,
2013-01-19 12:16:00,45.5,28.0,30.13,SW,222,3.0,7.0,50,0.00,,,0.00,463,WeatherCatV1.11B39,2013-01-19 17:16:00,
2013-01-19 12:21:00,46.4,28.3,30.13,SSE,157,8.0,11.0,49,0.00,,,0.00,465,WeatherCatV1.11B39,2013-01-19 17:21:00,
2013-01-19 12:26:00,46.1,27.0,30.13,SSW,202,4.0,14.0,47,0.00,,,0.00,466,WeatherCatV1.11B39,2013-01-19 17:26:00,
2013-01-19 12:31:00,46.5,26.8,30.12,South,191,8.0,14.0,46,0.00,,,0.00,465,WeatherCatV1.11B39,2013-01-19 17:31:00,
2013-01-19 12:37:00,47.0,27.3,30.12,South,184,10.0,12.0,46,0.00,,,0.00,465,WeatherCatV1.11B39,2013-01-19 17:37:00,
2013-01-19 12:42:00,47.6,27.3,30.12,South,184,8.0,12.0,45,0.00,,,0.00,463,WeatherCatV1.11B39,2013-01-19 17:42:00,
2013-01-19 12:47:00,47.0,26.8,30.11,SSE,150,10.0,13.0,45,0.00,,,0.00,461,WeatherCatV1.11B39,2013-01-19 17:47:00,
2013-01-19 12:52:00,47.7,27.4,30.11,SSE,162,9.0,11.0,45,0.00,,,0.00,457,WeatherCatV1.11B39,2013-01-19 17:52:00,
2013-01-19 12:57:00,47.6,27.3,30.11,South,191,7.0,12.0,45,0.00,,,0.00,456,WeatherCatV1.11B39,2013-01-19 17:57:00,
2013-01-19 13:02:00,48.5,27.0,30.10,SW,226,5.0,10.0,43,0.00,,,0.00,450,WeatherCatV1.11B39,2013-01-19 18:02:00,
2013-01-19 13:07:00,49.5,27.9,30.10,South,174,8.0,8.0,43,0.00,,,0.00,450,WeatherCatV1.11B39,2013-01-19 18:07:00,
2013-01-19 13:12:00,49.5,27.4,30.10,South,174,10.0,11.0,42,0.00,,,0.00,447,WeatherCatV1.11B39,2013-01-19 18:12:00,
2013-01-19 13:17:00,49.6,26.9,30.08,SSW,210,6.0,12.0,41,0.00,,,0.00,442,WeatherCatV1.11B39,2013-01-19 18:17:00,
2013-01-19 13:22:00,49.8,28.2,30.08,South,191,6.0,13.0,43,0.00,,,0.00,438,WeatherCatV1.11B39,2013-01-19 18:22:00,
2013-01-19 13:27:00,50.2,26.8,30.08,South,176,9.0,11.0,40,0.00,,,0.00,435,WeatherCatV1.11B39,2013-01-19 18:27:00,
2013-01-19 13:32:00,50.7,27.3,30.07,South,182,9.0,10.0,40,0.00,,,0.00,428,WeatherCatV1.11B39,2013-01-19 18:32:00,
2013-01-19 13:37:00,51.0,28.1,30.07,South,169,7.0,12.0,41,0.00,,,0.00,422,WeatherCatV1.11B39,2013-01-19 18:37:00,
2013-01-19 13:42:00,50.5,26.5,30.07,South,185,5.0,16.0,39,0.00,,,0.00,417,WeatherCatV1.11B39,2013-01-19 18:42:00,
2013-01-19 13:47:00,50.7,27.3,30.06,South,174,7.0,12.0,40,0.00,,,0.00,410,WeatherCatV1.11B39,2013-01-19 18:47:00,
2013-01-19 13:52:00,51.4,27.3,30.06,SSW,203,8.0,11.0,39,0.00,,,0.00,405,WeatherCatV1.11B39,2013-01-19 18:52:00,
2013-01-19 13:57:00,51.7,27.6,30.06,SSW,202,7.0,13.0,39,0.00,,,0.00,398,WeatherCatV1.11B39,2013-01-19 18:57:00,
2013-01-19 14:02:00,52.0,27.2,30.05,SSW,196,10.0,14.0,38,0.00,,,0.00,391,WeatherCatV1.11B39,2013-01-19 19:02:00,
2013-01-19 14:07:00,52.0,27.2,30.05,SSE,155,12.0,13.0,38,0.00,,,0.00,384,WeatherCatV1.11B39,2013-01-19 19:07:00,
2013-01-19 14:12:00,52.8,27.3,30.05,SE,143,5.0,12.0,37,0.00,,,0.00,377,WeatherCatV1.11B39,2013-01-19 19:12:00,
2013-01-19 14:17:00,53.2,27.6,30.04,SSW,195,6.0,10.0,37,0.00,,,0.00,368,WeatherCatV1.11B39,2013-01-19 19:17:00,
2013-01-19 14:22:00,53.6,28.0,30.04,SSW,200,4.0,9.0,37,0.00,,,0.00,359,WeatherCatV1.11B39,2013-01-19 19:22:00,
2013-01-19 14:27:00,53.6,28.0,30.04,South,178,3.0,7.0,37,0.00,,,0.00,352,WeatherCatV1.11B39,2013-01-19 19:27:00,
2013-01-19 14:33:00,53.5,28.5,30.03,South,185,9.0,12.0,38,0.00,,,0.00,341,WeatherCatV1.11B39,2013-01-19 19:33:00,
2013-01-19 14:38:00,53.3,28.3,30.03,SSW,192,7.0,16.0,38,0.00,,,0.00,331,WeatherCatV1.11B39,2013-01-19 19:38:00,
2013-01-19 14:43:00,53.6,28.0,30.03,SSW,199,6.0,12.0,37,0.00,,,0.00,322,WeatherCatV1.11B39,2013-01-19 19:43:00,
2013-01-19 14:49:00,53.6,26.6,30.02,South,169,12.0,13.0,35,0.00,,,0.00,311,WeatherCatV1.11B39,2013-01-19 19:49:00,
2013-01-19 14:54:00,53.6,27.3,30.02,South,175,10.0,11.0,36,0.00,,,0.00,301,WeatherCatV1.11B39,2013-01-19 19:54:00,
2013-01-19 14:59:00,53.5,27.9,30.01,South,174,7.0,20.0,37,0.00,,,0.00,290,WeatherCatV1.11B39,2013-01-19 19:59:00,
2013-01-19 15:04:00,53.5,26.5,30.01,SSE,167,14.0,19.0,35,0.00,,,0.00,282,WeatherCatV1.11B39,2013-01-19 20:04:00,
2013-01-19 15:09:00,54.1,27.7,30.01,SE,136,5.0,18.0,36,0.00,,,0.00,269,WeatherCatV1.11B39,2013-01-19 20:09:00,
2013-01-19 15:14:00,53.8,26.8,30.01,South,179,13.0,14.0,35,0.00,,,0.00,260,WeatherCatV1.11B39,2013-01-19 20:14:00,
2013-01-19 15:19:00,54.1,28.4,30.01,SE,124,6.0,13.0,37,0.00,,,0.00,248,WeatherCatV1.11B39,2013-01-19 20:19:00,
2013-01-19 15:24:00,54.1,28.4,30.01,SW,217,10.0,14.0,37,0.00,,,0.00,238,WeatherCatV1.11B39,2013-01-19 20:24:00,
2013-01-19 15:29:00,54.2,27.2,30.00,SSW,200,8.0,10.0,35,0.00,,,0.00,227,WeatherCatV1.11B39,2013-01-19 20:29:00,
2013-01-19 15:34:00,54.1,27.1,30.00,South,175,5.0,17.0,35,0.00,,,0.00,215,WeatherCatV1.11B39,2013-01-19 20:34:00,
2013-01-19 15:39:00,54.2,27.2,30.00,SSW,199,3.0,17.0,35,0.00,,,0.00,202,WeatherCatV1.11B39,2013-01-19 20:39:00,
2013-01-19 15:44:00,54.2,27.2,30.00,SSW,195,3.0,9.0,35,0.00,,,0.00,192,WeatherCatV1.11B39,2013-01-19 20:44:00,
2013-01-19 15:49:00,54.1,27.1,30.00,South,172,5.0,12.0,35,0.00,,,0.00,179,WeatherCatV1.11B39,2013-01-19 20:49:00,
2013-01-19 15:54:00,54.2,27.8,30.00,SSW,193,3.0,7.0,36,0.00,,,0.00,169,WeatherCatV1.11B39,2013-01-19 20:54:00,
2013-01-19 15:59:00,54.1,26.4,29.99,South,178,8.0,11.0,34,0.00,,,0.00,157,WeatherCatV1.11B39,2013-01-19 20:59:00,
2013-01-19 16:04:00,54.1,28.4,29.99,South,171,12.0,12.0,37,0.00,,,0.00,144,WeatherCatV1.11B39,2013-01-19 21:04:00,
2013-01-19 16:10:00,54.1,27.7,29.99,SSW,210,7.0,12.0,36,0.00,,,0.00,132,WeatherCatV1.11B39,2013-01-19 21:10:00,
2013-01-19 16:15:00,54.1,27.7,29.99,South,179,5.0,11.0,36,0.00,,,0.00,121,WeatherCatV1.11B39,2013-01-19 21:15:00,
2013-01-19 16:20:00,54.1,27.1,29.99,SSW,208,5.0,11.0,35,0.00,,,0.00,111,WeatherCatV1.11B39,2013-01-19 21:20:00,
2013-01-19 16:25:00,54.1,27.1,29.99,SSE,162,6.0,9.0,35,0.00,,,0.00,97,WeatherCatV1.11B39,2013-01-19 21:25:00,
2013-01-19 16:30:00,53.9,26.9,29.98,SSW,200,7.0,11.0,35,0.00,,,0.00,83,WeatherCatV1.11B39,2013-01-19 21:30:00,
2013-01-19 16:35:00,53.8,27.5,29.98,SSW,196,5.0,6.0,36,0.00,,,0.00,70,WeatherCatV1.11B39,2013-01-19 21:35:00,
2013-01-19 16:40:00,53.5,27.2,29.98,SSE,168,7.0,10.0,36,0.00,,,0.00,58,WeatherCatV1.11B39,2013-01-19 21:40:00,
2013-01-19 16:45:00,53.2,28.3,29.98,South,175,3.0,11.0,38,0.00,,,0.00,48,WeatherCatV1.11B39,2013-01-19 21:45:00,
2013-01-19 16:50:00,52.9,27.3,29.98,South,188,5.0,13.0,37,0.00,,,0.00,37,WeatherCatV1.11B39,2013-01-19 21:50:00,
2013-01-19 16:55:00,52.6,27.1,29.98,SSW,192,5.0,13.0,37,0.00,,,0.00,32,WeatherCatV1.11B39,2013-01-19 21:55:00,
2013-01-19 17:00:00,52.2,28.0,29.98,SSW,202,1.0,12.0,39,0.00,,,0.00,23,WeatherCatV1.11B39,2013-01-19 22:00:00,
2013-01-19 17:05:00,51.6,28.1,29.98,SSW,200,2.0,7.0,40,0.00,,,0.00,12,WeatherCatV1.11B39,2013-01-19 22:05:00,
2013-01-19 17:10:00,51.1,27.0,29.98,SSW,199,3.0,10.0,39,0.00,,,0.00,9,WeatherCatV1.11B39,2013-01-19 22:10:00,
2013-01-19 17:15:00,50.8,27.4,29.98,SSW,203,8.0,13.0,40,0.00,,,0.00,7,WeatherCatV1.11B39,2013-01-19 22:15:00,
2013-01-19 17:20:00,50.7,27.9,29.98,SW,226,5.0,6.0,41,0.00,,,0.00,5,WeatherCatV1.11B39,2013-01-19 22:20:00,
2013-01-19 17:25:00,50.4,28.2,29.98,SSW,196,4.0,7.0,42,0.00,,,0.00,5,WeatherCatV1.11B39,2013-01-19 22:25:00,
2013-01-19 17:30:00,50.1,27.9,29.98,SSW,208,3.0,7.0,42,0.00,,,0.00,0,WeatherCatV1.11B39,2013-01-19 22:30:00,
2013-01-19 17:35:00,49.6,28.6,29.98,SSW,196,3.0,8.0,44,0.00,,,0.00,0,WeatherCatV1.11B39,2013-01-19 22:35:00,
2013-01-19 17:40:00,49.2,28.2,29.98,SSW,198,3.0,7.0,44,0.00,,,0.00,0,WeatherCatV1.11B39,2013-01-19 22:40:00,
2013-01-19 17:45:00,48.6,28.8,29.97,SSW,200,6.0,8.0,46,0.00,,,0.00,0,WeatherCatV1.11B39,2013-01-19 22:45:00,
2013-01-19 17:50:00,48.2,28.4,29.97,SSW,200,2.0,7.0,46,0.00,,,0.00,0,WeatherCatV1.11B39,2013-01-19 22:50:00,
2013-01-19 17:55:00,47.6,28.4,29.97,SSW,212,3.0,7.0,47,0.00,,,0.00,0,WeatherCatV1.11B39,2013-01-19 22:55:00,
2013-01-19 18:00:00,47.1,27.9,29.97,SSW,213,5.0,9.0,47,0.00,,,0.00,0,WeatherCatV1.11B39,2013-01-19 23:00:00,
2013-01-19 18:05:00,46.8,27.6,29.97,SSW,213,3.0,7.0,47,0.00,,,0.00,0,WeatherCatV1.11B39,2013-01-19 23:05:00,
2013-01-19 18:10:00,46.7,28.1,29.97,SSW,209,5.0,7.0,48,0.00,,,0.00,0,WeatherCatV1.11B39,2013-01-19 23:10:00,
2013-01-19 18:15:00,46.2,28.1,29.97,SSW,202,8.0,8.0,49,0.00,,,0.00,0,WeatherCatV1.11B39,2013-01-19 23:15:00,
2013-01-19 18:20:00,46.0,27.4,29.97,SSW,198,5.0,8.0,48,0.00,,,0.00,0,WeatherCatV1.11B39,2013-01-19 23:20:00,
2013-01-19 18:25:00,45.8,28.2,29.97,SSW,209,5.0,8.0,50,0.00,,,0.00,0,WeatherCatV1.11B39,2013-01-19 23:25:00,
2013-01-19 18:30:00,45.7,28.1,29.97,SSW,196,3.0,6.0,50,0.00,,,0.00,0,WeatherCatV1.11B39,2013-01-19 23:30:00,
2013-01-19 18:35:00,45.4,27.9,29.97,SW,223,2.0,5.0,50,0.00,,,0.00,0,WeatherCatV1.11B39,2013-01-19 23:35:00,
2013-01-19 18:40:00,45.2,27.2,29.97,SSW,212,3.0,5.0,49,0.00,,,0.00,0,WeatherCatV1.11B39,2013-01-19 23:40:00,
2013-01-19 18:45:00,44.9,27.9,29.97,SSW,213,2.0,6.0,51,0.00,,,0.00,0,WeatherCatV1.11B39,2013-01-19 23:45:00,
2013-01-19 18:50:00,44.8,28.3,29.97,SW,216,5.0,5.0,52,0.00,,,0.00,0,WeatherCatV1.11B39,2013-01-19 23:50:00,
2013-01-19 18:55:00,44.6,28.1,29.97,SW,217,2.0,5.0,52,0.00,,,0.00,0,WeatherCatV1.11B39,2013-01-19 23:55:00,
2013-01-19 19:00:00,44.3,27.3,29.97,SSW,202,5.0,7.0,51,0.00,,,0.00,0,WeatherCatV1.11B39,2013-01-20 00:00:00,
2013-01-19 19:05:00,44.3,27.8,29.97,SSW,203,5.0,6.0,52,0.00,,,0.00,0,WeatherCatV1.11B39,2013-01-20 00:05:00,
2013-01-19 19:10:00,44.2,27.2,29.97,SW,229,2.0,8.0,51,0.00,,,0.00,0,WeatherCatV1.11B39,2013-01-20 00:10:00,
2013-01-19 19:15:00,43.9,27.9,29.97,SSW,212,4.0,6.0,53,0.00,,,0.00,0,WeatherCatV1.11B39,2013-01-20 00:15:00,
2013-01-19 19:20:00,43.8,28.2,29.97,SW,219,3.0,6.0,54,0.00,,,0.00,0,WeatherCatV1.11B39,2013-01-20 00:20:00,
2013-01-19 19:25:00,43.8,28.2,29.97,SW,224,8.0,8.0,54,0.00,,,0.00,0,WeatherCatV1.11B39,2013-01-20 00:25:00,
2013-01-19 19:30:00,43.8,28.2,29.97,SSW,213,2.0,8.0,54,0.00,,,0.00,0,WeatherCatV1.11B39,2013-01-20 00:30:00,
2013-01-19 19:35:00,43.6,27.6,29.97,SSW,209,3.0,5.0,53,0.00,,,0.00,0,WeatherCatV1.11B39,2013-01-20 00:35:00,
2013-01-19 19:40:00,43.5,27.5,29.97,SW,219,7.0,7.0,53,0.00,,,0.00,0,WeatherCatV1.11B39,2013-01-20 00:40:00,
2013-01-19 19:45:00,43.2,28.1,29.96,SW,229,2.0,5.0,55,0.00,,,0.00,0,WeatherCatV1.11B39,2013-01-20 00:45:00,
2013-01-19 19:50:00,43.2,28.1,29.96,SSW,205,6.0,7.0,55,0.00,,,0.00,0,WeatherCatV1.11B39,2013-01-20 00:50:00,
2013-01-19 19:55:00,43.1,28.5,29.96,SW,234,5.0,6.0,56,0.00,,,0.00,0,WeatherCatV1.11B39,2013-01-20 00:55:00,
2013-01-19 20:00:00,43.1,28.9,29.96,SSW,198,3.0,5.0,57,0.00,,,0.00,0,WeatherCatV1.11B39,2013-01-20 01:00:00,
2013-01-19 20:05:00,43.2,28.6,29.96,SSW,213,6.0,6.0,56,0.00,,,0.00,0,WeatherCatV1.11B39,2013-01-20 01:05:00,
2013-01-19 20:10:00,43.1,27.6,29.96,SSW,205,5.0,7.0,54,0.00,,,0.00,0,WeatherCatV1.11B39,2013-01-20 01:10:00,
2013-01-19 20:15:00,42.8,28.2,29.95,SSW,209,3.0,5.0,56,0.00,,,0.00,0,WeatherCatV1.11B39,2013-01-20 01:15:00,
2013-01-19 20:20:00,42.5,27.9,29.95,SW,219,3.0,6.0,56,0.00,,,0.00,0,WeatherCatV1.11B39,2013-01-20 01:20:00,
2013-01-19 20:25:00,42.3,28.2,29.95,SW,219,3.0,7.0,57,0.00,,,0.00,0,WeatherCatV1.11B39,2013-01-20 01:25:00,
2013-01-19 20:30:00,42.3,27.7,29.95,SW,215,4.0,5.0,56,0.00,,,0.00,0,WeatherCatV1.11B39,2013-01-20 01:30:00,
2013-01-19 20:35:00,42.2,27.6,29.95,SW,217,2.0,5.0,56,0.00,,,0.00,0,WeatherCatV1.11B39,2013-01-20 01:35:00,
2013-01-19 20:40:00,42.2,28.1,29.95,SSW,206,5.0,6.0,57,0.00,,,0.00,0,WeatherCatV1.11B39,2013-01-20 01:40:00,
2013-01-19 20:45:00,42.1,28.4,29.95,SSW,202,6.0,7.0,58,0.00,,,0.00,0,WeatherCatV1.11B39,2013-01-20 01:45:00,
2013-01-19 20:50:00,41.9,27.4,29.95,SSW,193,6.0,6.0,56,0.00,,,0.00,0,WeatherCatV1.11B39,2013-01-20 01:50:00,
2013-01-19 20:55:00,41.9,27.8,29.95,SW,217,5.0,7.0,57,0.00,,,0.00,0,WeatherCatV1.11B39,2013-01-20 01:55:00,
2013-01-19 21:00:00,42.1,27.5,29.94,SSW,196,2.0,8.0,56,0.00,,,0.00,0,WeatherCatV1.11B39,2013-01-20 02:00:00,
2013-01-19 21:05:00,41.9,27.4,29.94,SSW,199,5.0,8.0,56,0.00,,,0.00,0,WeatherCatV1.11B39,2013-01-20 02:05:00,
2013-01-19 21:10:00,41.9,28.2,29.94,SSW,199,2.0,8.0,58,0.00,,,0.00,0,WeatherCatV1.11B39,2013-01-20 02:10:00,
2013-01-19 21:15:00,41.8,27.7,29.94,SSW,198,3.0,7.0,57,0.00,,,0.00,0,WeatherCatV1.11B39,2013-01-20 02:15:00,
2013-01-19 21:20:00,41.6,28.3,29.94,SSW,196,3.0,5.0,59,0.00,,,0.00,0,WeatherCatV1.11B39,2013-01-20 02:20:00,
2013-01-19 21:25:00,41.3,28.1,29.94,SSW,205,4.0,7.0,59,0.00,,,0.00,0,WeatherCatV1.11B39,2013-01-20 02:25:00,
2013-01-19 21:30:00,41.3,27.7,29.93,SSW,196,2.0,6.0,58,0.00,,,0.00,0,WeatherCatV1.11B39,2013-01-20 02:30:00,
2013-01-19 21:35:00,41.3,27.7,29.93,SSW,200,3.0,5.0,58,0.00,,,0.00,0,WeatherCatV1.11B39,2013-01-20 02:35:00,
2013-01-19 21:40:00,41.2,28.4,29.93,SW,220,2.0,4.0,60,0.00,,,0.00,0,WeatherCatV1.11B39,2013-01-20 02:40:00,
2013-01-19 21:45:00,41.1,27.9,29.93,SW,219,2.0,4.0,59,0.00,,,0.00,0,WeatherCatV1.11B39,2013-01-20 02:45:00,
2013-01-19 21:50:00,40.9,27.7,29.93,SW,222,3.0,5.0,59,0.00,,,0.00,0,WeatherCatV1.11B39,2013-01-20 02:50:00,
2013-01-19 21:55:00,40.8,27.6,29.93,SSW,210,3.0,6.0,59,0.00,,,0.00,0,WeatherCatV1.11B39,2013-01-20 02:55:00,
2013-01-19 22:00:00,40.6,28.2,29.92,SSW,212,3.0,4.0,61,0.00,,,0.00,0,WeatherCatV1.11B39,2013-01-20 03:00:00,
2013-01-19 22:05:00,40.5,28.1,29.92,SSW,206,2.0,5.0,61,0.00,,,0.00,0,WeatherCatV1.11B39,2013-01-20 03:05:00,
2013-01-19 22:10:00,40.2,27.8,29.92,SSW,198,3.0,5.0,61,0.00,,,0.00,0,WeatherCatV1.11B39,2013-01-20 03:10:00,
2013-01-19 22:15:00,40.1,28.5,29.91,SSW,200,2.0,6.0,63,0.00,,,0.00,0,WeatherCatV1.11B39,2013-01-20 03:15:00,
2013-01-19 22:20:00,39.9,27.6,29.91,SSW,203,3.0,5.0,61,0.00,,,0.00,0,WeatherCatV1.11B39,2013-01-20 03:20:00,
2013-01-19 22:25:00,39.8,27.9,29.91,SSW,200,5.0,6.0,62,0.00,,,0.00,0,WeatherCatV1.11B39,2013-01-20 03:25:00,
2013-01-19 22:30:00,39.6,28.4,29.91,SSW,206,3.0,4.0,64,0.00,,,0.00,0,WeatherCatV1.11B39,2013-01-20 03:30:00,
2013-01-19 22:35:00,39.3,28.2,29.91,SW,227,2.0,5.0,64,0.00,,,0.00,0,WeatherCatV1.11B39,2013-01-20 03:35:00,
2013-01-19 22:40:00,39.2,28.1,29.91,SSW,200,2.0,7.0,64,0.00,,,0.00,0,WeatherCatV1.11B39,2013-01-20 03:40:00,
2013-01-19 22:45:00,39.1,28.0,29.90,SSW,199,2.0,6.0,64,0.00,,,0.00,0,WeatherCatV1.11B39,2013-01-20 03:45:00,
2013-01-19 22:50:00,38.9,28.2,29.90,SSW,206,2.0,5.0,65,0.00,,,0.00,0,WeatherCatV1.11B39,2013-01-20 03:50:00,
2013-01-19 22:55:00,38.8,27.7,29.90,SSW,202,3.0,8.0,64,0.00,,,0.00,0,WeatherCatV1.11B39,2013-01-20 03:55:00,
2013-01-19 23:00:00,38.8,27.7,29.89,SSW,203,3.0,8.0,64,0.00,,,0.00,0,WeatherCatV1.11B39,2013-01-20 04:00:00,
2013-01-19 23:05:00,38.9,27.8,29.89,South,188,5.0,6.0,64,0.00,,,0.00,0,WeatherCatV1.11B39,2013-01-20 04:05:00,
2013-01-19 23:10:00,38.9,27.8,29.89,SSW,195,2.0,7.0,64,0.00,,,0.00,0,WeatherCatV1.11B39,2013-01-20 04:10:00,
2013-01-19 23:15:00,38.9,27.8,29.89,SSW,199,5.0,6.0,64,0.00,,,0.00,0,WeatherCatV1.11B39,2013-01-20 04:15:00,
2013-01-19 23:20:00,38.8,28.1,29.89,SSW,202,5.0,5.0,65,0.00,,,0.00,0,WeatherCatV1.11B39,2013-01-20 04:20:00,
2013-01-19 23:25:00,38.6,27.9,29.89,SSW,208,5.0,6.0,65,0.00,,,0.00,0,WeatherCatV1.11B39,2013-01-20 04:25:00,
2013-01-19 23:30:00,38.5,27.8,29.87,SSW,200,4.0,7.0,65,0.00,,,0.00,0,WeatherCatV1.11B39,2013-01-20 04:30:00,
2013-01-19 23:35:00,38.5,28.1,29.87,SW,217,6.0,7.0,66,0.00,,,0.00,0,WeatherCatV1.11B39,2013-01-20 04:35:00,
2013-01-19 23:40:00,38.3,28.3,29.87,SSW,200,4.0,6.0,67,0.00,,,0.00,0,WeatherCatV1.11B39,2013-01-20 04:40:00,
2013-01-19 23:45:00,38.2,28.2,29.86,SSW,206,3.0,8.0,67,0.00,,,0.00,0,WeatherCatV1.11B39,2013-01-20 04:45:00,
2013-01-19 23:50:00,38.2,28.6,29.86,SW,220,6.0,7.0,68,0.00,,,0.00,0,WeatherCatV1.11B39,2013-01-20 04:50:00,
2013-01-19 23:55:00,37.9,28.3,29.86,SW,230,5.0,6.0,68,0.00,,,0.00,0,WeatherCatV1.11B39,2013-01-20 04:55:00,